Simultaneous Nadir Overpasses (SNOs) Predictions

Prediction of SNOs between AQUA and METOP-A Satellite Orbit:

Table of predicted SNOs for the next 14.0 days since TLE Epoch: 2/24/2012
Index Date (AQUA) Time (AQUA) AQUA Lat,Lon Date (METOP-A) Time (METOP-A) METOP-A Lat,Lon Distance(km) Time Diff (sec)
1 02/26/2012 22:25:03 73.76,-162.00 02/26/2012 22:24:29 73.76,-162.07 2.61 34
2 02/26/2012 23:14:30 -73.84, 5.49 02/26/2012 23:15:10 -73.82, 5.41 3.07 40
3 02/29/2012 17:59:18 73.76, -95.55 02/29/2012 17:58:53 73.79, -95.59 3.15 25
4 02/29/2012 18:48:45 -73.83, 71.94 02/29/2012 18:49:34 -73.85, 71.89 2.90 49
5 03/03/2012 12:43:57 -73.33, 164.17 03/03/2012 12:42:48 -73.31, 162.38 57.34 69
6 03/03/2012 13:33:33 73.78, -29.15 03/03/2012 13:33:18 73.77, -29.22 2.52 15
7 03/03/2012 14:23:00 -73.85, 138.34 03/03/2012 14:23:59 -73.84, 138.26 2.70 59
8 03/06/2012 08:18:18 -73.74,-130.25 03/06/2012 08:17:04 -73.70,-130.33 5.09 74
9 03/06/2012 09:07:47 73.83, 37.19 03/06/2012 09:07:41 73.81, 37.27 3.19 6
10 03/06/2012 09:57:14 -73.89,-155.31 03/06/2012 09:58:22 -73.88,-155.24 2.45 68
11 03/09/2012 03:52:32 -73.76, -63.83 03/09/2012 03:51:28 -73.74, -63.83 1.21 64
12 03/09/2012 04:42:00 73.80, 103.71 03/09/2012 04:42:06 73.81, 103.66 2.06 6




NCC Satellite Simultaneous Nadir Overpasses (SNOs) Prediction Service
